Home   Weather   Monthey   Past weeks

Flag for Switzerland Past Weather in Monthey, Valais, Switzerland — Yesterday and Last 2 Weeks

Now
56 °F

Cool.


Feels Like: 56 °F
Forecast: 54 / 70 °F
Wind: 3 mph from Southwest

Location: Aigle

Current Time: Sep 26, 2016 at 2:21:42 AM

Latest Report: Sep 26, 2016 at 1:00 AM


Visibility: N/A

Pressure: 30.17 "Hg

Humidity: 95%

Dew Point: 55 °F

Location of MontheyLocation

Past Weather in Monthey — Graph

°F

Monthey Temperature Yesterday

Maximum temperature yesterday: 72 °F (at 4:00 PM)
Minimum temperature yesterday: 47 °F (at 7:00 AM)
Average temperature yesterday: 58 °F

High & Low Weather Summary for the Past Weeks

 TemperatureHumidityPressure
High82 °F (Sep 14, 2:00 PM)100% (Sep 18, 12:00 AM)30.30 "Hg (Sep 18, 12:00 AM)
Low47 °F (Sep 25, 7:00 AM)29% (Sep 14, 11:00 PM)29.74 "Hg (Sep 15, 2:00 AM)
Average61 °F83%30.04 "Hg
* Reported Sep 11 1:00 AM — Sep 26 1:00 AM, Monthey, Weather by CustomWeather, © 2016

Note: Actual official high and low records may vary slightly from our data, if they occured in-between our weather recording intervals... More about our weather records

Advertising

Monthey Weather History for the Previous 24 Hours

Scroll right to see more
 ConditionsComfort  
Time TempWeatherWind HumidityBarometerVisibility
1:00 AM
Mon, Sep 26
56 °FCool.3 mph95%30.17 "HgN/A
12:00 AM55 °FCool.1 mph98%30.18 "HgN/A
11:00 PM
Sun, Sep 25
57 °FCool.2 mph94%30.17 "HgN/A
10:00 PM57 °FCool.2 mph95%30.17 "HgN/A
9:00 PM56 °FCool.1 mph95%30.16 "HgN/A
8:00 PM59 °FPassing clouds.3 mph88%30.13 "Hg25 mi
7:00 PM60 °FCool.1 mph90%30.11 "HgN/A
6:00 PM69 °FMild.1 mph65%30.08 "HgN/A
5:00 PM71 °FPassing clouds.3 mph55%30.07 "Hg28 mi
4:00 PM72 °FMild.3 mph58%30.08 "HgN/A
3:00 PM69 °FMild.5 mph59%30.10 "HgN/A
2:00 PM68 °FPassing clouds.9 mph62%30.11 "Hg28 mi
1:00 PM69 °FMild.7 mph57%30.12 "HgN/A
12:00 PM66 °FMild.1 mph58%30.14 "HgN/A
11:00 AM64 °FMild.1 mph64%30.17 "HgN/A
10:00 AM60 °FCool.2 mph71%30.19 "HgN/A
9:00 AM55 °FCool.2 mph88%30.20 "HgN/A
8:00 AM49 °FSunny.3 mph95%30.22 "Hg25 mi
7:00 AM47 °FCool.1 mph97%30.22 "HgN/A
6:00 AM49 °FCool.2 mph95%30.20 "HgN/A
5:00 AM50 °FClear.2 mph95%30.21 "Hg9 mi
4:00 AM49 °FCool.3 mph97%30.21 "HgN/A
3:00 AM49 °FCool.1 mph97%30.22 "HgN/A
2:00 AM51 °FCool.1 mph97%30.22 "HgN/A
Weather by CustomWeather, © 2016

See weather overviewHow to use our weather pages